カタログに戻る

COSMOS 946

運用中ナビゲーションLEO
NORAD 10292·PAYLOAD·🇷🇺 Russia

打ち上げ Aug 24, 1977 から Plesetsk Cosmodrome

Loading…

次のパス (今後24時間)

TLE

最新Source: Space-Track

元期: Sep 14, 2026, 11:12 UTC

1 10292U 77079H   26257.46695444 -.00000028  00000-0 -85311-4 0  9992
2 10292  74.0224  68.7690 0031114 255.3417 132.7800 12.44921374210010

AllMySatでCOSMOS 946をリアルタイム追跡

Download on the App Store